Location: Beneden-Haastrecht
(52.0012°N, 4.7557°E)
Time: 13:59:55
(UTC+00:00)

Cosmos 1244 Rocket - Pass Details

Date: 24 October 2020
Orbit: 954 x 997 km, 82.9° (Epoch: 28 November)

Event Time Altitude Azimuth Distance (km) Brightness Sun altitude
Rises 17:56:16 0° 349° (N) 3,654 7.6 -14.3°
Reaches altitude 10° 17:58:46 10° 350° (N) 2,707 6.9 -14.7°
Maximum altitude 18:04:59 87° 80° (E) 976 4.4 -15.6°
Drops below altitude 10° 18:11:13 10° 171° (S) 2,716 6.7 -16.6°
Sets 18:13:43 0° 171° (S) 3,665 7.4 -17.0°
